Le nostre stazioni meteo in Italia

Pubblicità
Il mio iltempo24.it
Concordia Sagittaria, Italia (16107): Temperatura & dewpoint: 27.06.2020 12:00:00 - 03.07.2020 12:00:00 (CEST)Concordia Sagittaria, Italia (16107): velocità del vento: 27.06.2020 12:00:00 - 03.07.2020 12:00:00 (CEST)Concordia Sagittaria, Italia (16107): direzione del vento: 27.06.2020 12:00:00 - 03.07.2020 12:00:00 (CEST)Concordia Sagittaria, Italia (16107): reduced air pressure: 27.06.2020 12:00:00 - 03.07.2020 12:00:00 (CEST)Concordia Sagittaria, Italia (16107): precipitazioni: 27.06.2020 12:00:00 - 03.07.2020 12:00:00 (CEST)
Data & Tempo tt [°C] td [°C] ff [km/h] ff [kn] dd ppp [hPa] rr [mm]
03.07.2020 12:00:00 - - - - - - -
03.07.2020 11:00:00 25,4 19,5 24 13 NNE 1016,6 -
03.07.2020 10:00:00 22,1 19,6 11 6 NNE 1016,5 -
03.07.2020 09:00:00 22,0 18,9 15 8 NE 1016,2 -
03.07.2020 08:00:00 21,7 18,4 11 6 N 1015,5 0,0
03.07.2020 07:00:00 21,3 17,2 11 6 N 1015,0 -
03.07.2020 06:00:00 21,2 17,5 15 8 N 1014,6 -
03.07.2020 05:00:00 21,8 20,0 5 3 N 1014,3 -
03.07.2020 04:00:00 21,2 19,4 9 5 ONO 1014,4 -
03.07.2020 03:00:00 21,0 19,2 4 2 O 1014,9 -
03.07.2020 02:00:00 21,1 19,3 4 2 N 1014,5 0,0
03.07.2020 01:00:00 21,1 19,3 8 4 NNO 1014,4 -
03.07.2020 00:00:00 21,6 19,6 4 2 N 1014,5 -
02.07.2020 23:00:00 21,7 18,8 4 2 N 1014,6 -
02.07.2020 22:00:00 22,9 19,0 8 4 N 1014,3 -
02.07.2020 21:00:00 24,7 19,9 5 3 NNE 1014,1 -
02.07.2020 20:00:00 27,0 20,3 2 1 SSE 1014,1 0,0
02.07.2020 19:00:00 27,6 20,1 8 4 SSE 1014,1 -
02.07.2020 18:00:00 27,9 19,9 9 5 SE 1014,4 -
02.07.2020 17:00:00 28,3 21,5 13 7 SSE 1014,4 -
02.07.2020 16:00:00 28,0 20,5 9 5 SE 1014,8 -
02.07.2020 15:00:00 27,0 22,1 8 4 SE 1015,2 -
02.07.2020 14:00:00 25,6 23,0 11 6 SE 1015,7 0,0
02.07.2020 13:00:00 24,3 21,9 8 4 ESE 1016,1 -
02.07.2020 12:00:00 22,8 21,0 8 4 NNO 1016,4 -
02.07.2020 11:00:00 22,2 20,4 4 2 O 1016,0 -
02.07.2020 10:00:00 22,2 20,4 9 5 OSO 1016,0 -
02.07.2020 09:00:00 23,4 21,6 4 2 O 1015,7 -
02.07.2020 08:00:00 22,1 20,3 2 1 N 1014,9 0,0
02.07.2020 07:00:00 21,4 19,6 8 4 NNE 1014,5 -
02.07.2020 06:00:00 19,5 17,8 4 2 NO 1014,8 -
02.07.2020 05:00:00 19,6 17,9 4 2 NO 1014,5 -
02.07.2020 04:00:00 19,2 17,5 9 5 NO 1014,6 -
02.07.2020 03:00:00 19,1 17,4 5 3 ENE 1014,4 -
02.07.2020 02:00:00 19,9 18,1 0 0 N 1015,4 0,0
02.07.2020 01:00:00 21,2 19,4 13 7 NNO 1015,6 -
02.07.2020 00:00:00 22,1 20,3 8 4 ONO 1016,0 -
01.07.2020 23:00:00 23,5 21,2 4 2 N 1015,3 -
01.07.2020 22:00:00 24,4 20,5 8 4 N 1015,2 -
01.07.2020 21:00:00 25,1 20,1 9 5 NNE 1014,5 -
01.07.2020 20:00:00 26,7 22,9 5 3 NNE 1014,2 0,0
01.07.2020 19:00:00 27,3 22,9 4 2 NNE 1014,5 -
01.07.2020 18:00:00 27,0 22,1 8 4 NNO 1014,5 -
01.07.2020 17:00:00 27,6 21,1 4 2 SE 1015,1 -
01.07.2020 16:00:00 29,9 21,5 13 7 SE 1014,9 -
01.07.2020 15:00:00 30,2 21,0 9 5 SSE 1014,9 -
01.07.2020 14:00:00 30,4 22,8 5 3 SSE 1015,5 0,0
01.07.2020 13:00:00 29,6 22,8 11 6 E 1015,8 -
01.07.2020 12:00:00 29,0 21,2 8 4 SE 1016,3 -
01.07.2020 11:00:00 27,5 21,9 8 4 NNO 1016,5 -
01.07.2020 10:00:00 26,1 22,3 2 1 ONO 1016,8 -
01.07.2020 09:00:00 24,9 21,8 8 4 NNE 1016,9 -
01.07.2020 08:00:00 23,5 21,7 9 5 N 1016,8 0,0
01.07.2020 07:00:00 21,8 20,0 5 3 N 1016,6 -
01.07.2020 06:00:00 20,6 18,8 4 2 N 1016,4 -
01.07.2020 05:00:00 21,0 19,2 4 2 N 1016,1 -
01.07.2020 04:00:00 21,3 19,5 4 2 NNE 1016,1 -
01.07.2020 03:00:00 21,9 20,1 8 4 NNO 1016,4 -
01.07.2020 02:00:00 22,0 20,2 8 4 N 1016,6 0,0
01.07.2020 01:00:00 22,2 20,4 5 3 NNO 1016,9 -
01.07.2020 00:00:00 22,3 20,5 0 0 N 1016,8 -
30.06.2020 23:00:00 22,6 20,8 0 0 N 1016,5 -
30.06.2020 22:00:00 23,9 21,9 4 2 SSE 1016,1 -
30.06.2020 21:00:00 25,0 21,5 8 4 SE 1015,8 -
30.06.2020 20:00:00 26,9 21,1 11 6 SE 1015,5 0,0
30.06.2020 19:00:00 28,3 20,5 2 1 SE 1015,3 -
30.06.2020 18:00:00 28,9 18,9 0 0 N 1015,6 -
30.06.2020 17:00:00 29,2 19,5 4 2 E 1015,9 -
30.06.2020 16:00:00 29,4 20,5 4 2 NE 1016,0 -
30.06.2020 15:00:00 29,3 21,0 8 4 ESE 1016,2 -
30.06.2020 14:00:00 28,9 21,1 13 7 NE 1016,5 0,0
30.06.2020 13:00:00 28,1 21,1 16 9 ENE 1016,7 -
30.06.2020 12:00:00 26,7 20,9 15 8 NNE 1017,0 -
30.06.2020 11:00:00 26,5 20,5 15 8 N 1017,1 -
30.06.2020 10:00:00 25,3 19,6 11 6 NNE 1017,1 -
30.06.2020 09:00:00 23,8 18,8 21 11 NNE 1016,9 -
30.06.2020 08:00:00 21,9 18,0 13 7 N 1016,7 0,0
30.06.2020 07:00:00 21,1 17,8 13 7 NNE 1016,6 -
30.06.2020 06:00:00 20,6 17,9 11 6 N 1016,1 -
30.06.2020 05:00:00 20,9 18,2 9 5 N 1015,9 -
30.06.2020 04:00:00 20,5 17,8 11 6 N 1015,7 -
30.06.2020 03:00:00 21,0 17,7 16 9 N 1015,8 -
30.06.2020 02:00:00 20,8 18,1 15 8 N 1016,1 0,0
30.06.2020 01:00:00 21,1 19,0 13 7 N 1015,9 -
30.06.2020 00:00:00 21,5 19,7 11 6 NNO 1015,9 -
29.06.2020 23:00:00 22,1 20,3 11 6 N 1015,8 -
29.06.2020 22:00:00 22,2 20,4 5 3 N 1015,5 -
29.06.2020 21:00:00 21,8 20,0 5 3 NNE 1015,1 -
29.06.2020 20:00:00 21,7 19,9 9 5 N 1014,9 0,0
29.06.2020 19:00:00 21,6 19,8 4 2 NE 1014,9 -
29.06.2020 18:00:00 21,5 19,7 13 7 NE 1014,4 -
29.06.2020 17:00:00 21,8 20,0 16 9 N 1014,2 -
29.06.2020 16:00:00 20,6 18,8 13 7 N 1014,4 -
29.06.2020 15:00:00 30,1 23,3 35 19 SE 1011,5 -
29.06.2020 14:00:00 29,8 22,2 11 6 SE 1012,7 0,0
29.06.2020 13:00:00 29,4 19,9 13 7 E 1013,5 -
29.06.2020 12:00:00 28,8 22,3 4 2 E 1013,8 -
29.06.2020 11:00:00 28,4 23,3 8 4 SE 1014,2 -
29.06.2020 10:00:00 27,1 23,5 4 2 N 1014,7 -
29.06.2020 09:00:00 25,0 22,8 8 4 NNE 1014,9 -
29.06.2020 08:00:00 22,2 20,4 9 5 NNE 1015,3 0,0
29.06.2020 07:00:00 21,4 19,6 8 4 NNO 1015,3 -
29.06.2020 06:00:00 20,7 18,9 5 3 N 1015,4 -
29.06.2020 05:00:00 21,3 19,5 4 2 N 1015,8 -
29.06.2020 04:00:00 21,3 19,5 8 4 NE 1016,2 -
29.06.2020 03:00:00 21,4 19,6 5 3 NE 1016,6 -
29.06.2020 02:00:00 22,3 20,5 4 2 N 1017,2 0,0
29.06.2020 01:00:00 22,7 20,9 0 0 N 1017,6 -
29.06.2020 00:00:00 23,6 21,8 11 6 N 1018,1 -
28.06.2020 23:00:00 23,5 21,3 4 2 ESE 1017,7 -
28.06.2020 22:00:00 24,4 21,5 2 1 ENE 1017,8 -
28.06.2020 21:00:00 25,4 20,8 4 2 ESE 1017,7 -
28.06.2020 20:00:00 27,3 21,3 5 3 E 1017,5 0,0
28.06.2020 19:00:00 28,6 21,6 11 6 SE 1017,8 -
28.06.2020 18:00:00 29,4 21,3 5 3 ESE 1018,1 -
28.06.2020 17:00:00 29,5 21,1 15 8 SE 1018,4 -
28.06.2020 16:00:00 29,6 20,7 5 3 SSE 1018,9 -
28.06.2020 15:00:00 29,8 21,2 15 8 S 1019,2 -
28.06.2020 14:00:00 29,6 22,0 11 6 SSO 1019,7 0,0
28.06.2020 13:00:00 30,0 22,9 5 3 E 1020,0 -
28.06.2020 12:00:00 28,6 23,2 4 2 ENE 1020,2 -
28.06.2020 11:00:00 27,5 22,4 2 1 ESE 1020,2 -
28.06.2020 10:00:00 26,5 22,9 2 1 ENE 1020,6 -
28.06.2020 09:00:00 25,3 23,5 5 3 ENE 1020,4 -
28.06.2020 08:00:00 22,6 20,8 8 4 NNE 1020,3 0,0
28.06.2020 07:00:00 20,6 18,8 5 3 NNO 1020,2 -
28.06.2020 06:00:00 19,9 18,1 5 3 NNO 1019,9 -
28.06.2020 05:00:00 20,1 18,3 0 0 N 1019,8 -
28.06.2020 04:00:00 20,8 19,0 0 0 N 1019,7 -
28.06.2020 03:00:00 20,7 18,9 2 1 NNE 1019,8 -
28.06.2020 02:00:00 20,3 18,5 0 0 N 1019,9 0,0
28.06.2020 01:00:00 20,5 18,7 0 0 N 1020,1 -
28.06.2020 00:00:00 21,0 19,2 4 2 ESE 1019,8 -
27.06.2020 23:00:00 21,5 19,4 0 0 N 1019,7 -
27.06.2020 22:00:00 22,5 19,6 2 1 SSE 1019,6 -
27.06.2020 21:00:00 24,6 20,2 5 3 SE 1018,9 -
27.06.2020 20:00:00 26,6 20,6 5 3 SSE 1018,9 0,0
27.06.2020 19:00:00 27,3 20,3 4 2 SSE 1019,0 -
27.06.2020 18:00:00 27,8 20,6 9 5 SE 1019,1 -
27.06.2020 17:00:00 28,3 19,2 9 5 SSE 1019,4 -
27.06.2020 16:00:00 28,4 19,8 9 5 E 1020,0 -
27.06.2020 15:00:00 28,8 20,7 9 5 E 1020,2 -
27.06.2020 14:00:00 28,5 21,0 8 4 ESE 1020,6 0,0
27.06.2020 13:00:00 28,2 21,7 15 8 S 1020,8 -
27.06.2020 12:00:00 27,6 21,1 4 2 SSE 1020,9 -

tt = Temperatura
td = dewpoint
ff = velocità del vento
dd = direzione del vento
ppp = reduced air pressure
rr = precipitazioni

Stazioni seguenti

WeatherPro
AMSI
MeteoEarth